User: anonymous
Location: Columbia
(38.9520°N, 92.3340°W)
Time: 04:32:43
(UTC-05:00)
Language:

Cosmos 1603 - Orbit

View from above orbital plane
View from above orbital plane
View from above satellite
View from above satellite

Ground track
Ground track

The orbit data is extracted from the following two-line orbital elements,

1 15333U 84106A   14259.54541361 -.00000247  00000-0 -10502-3 0   777
2 15333 071.0297 035.9048 0022347 294.8391 114.4211 14.13953841546251
Epoch (UTC): 16 September 2014 13:05:23
Eccentricity: 0.0022347
inclination: 71.0297°
perigee height: 830 km
apogee height: 862 km
right ascension of ascending node: 35.9048°
argument of perigee: 294.8391°
revolutions per day: 14.13953841
mean anomaly at epoch: 114.4211°
orbit number at epoch: 54625

The dashed part of the orbit path shows where the satellite is in the earth's shadow,  

DLR